Powrót do katalogu

ONEWEB-0190

AktywnyŁącznośćPO
NORAD 48796·PAYLOAD·🇬🇧 United Kingdom

Wystrzelony May 28, 2021 z Vostochny Cosmodrome

Loading…

Następne Przeloty (najbliższe 24 godziny)

TLE

ŚwieżeSource: CelesTrak SupGP

Epoka: Sep 14, 2026, 21:52 UTC

1 48796C 21045AF  26257.91160139  .00000719  00000+0  19129-2 0  2575
2 48796  87.8985 241.3099 0002342  69.9796 316.4309 13.15547556    15

Śledź ONEWEB-0190 w czasie rzeczywistym z AllMySat

Download on the App Store